TimeCST,TemperatureF,Dew PointF,Humidity,Sea Level PressureIn,VisibilityMPH,Wind Direction,Wind SpeedMPH,Gust SpeedMPH,PrecipitationIn,Events,Conditions,WindDirDegrees,DateUTC
12:01 AM,73.4,71.6,94,29.87,10.0,ESE,4.6,-,N/A,,Overcast,110,2013-02-11 06:01:00
12:15 AM,73.4,71.6,94,29.87,10.0,East,4.6,-,N/A,,Overcast,90,2013-02-11 06:15:00
12:44 AM,73.4,71.6,94,29.87,10.0,East,4.6,-,N/A,,Overcast,80,2013-02-11 06:44:00
12:53 AM,73.9,71.1,91,29.87,10.0,ENE,4.6,-,N/A,,Overcast,60,2013-02-11 06:53:00
1:10 AM,73.4,71.6,94,29.87,9.0,East,4.6,-,N/A,,Overcast,90,2013-02-11 07:10:00
1:53 AM,73.0,71.1,93,29.86,9.0,East,4.6,-,N/A,,Overcast,80,2013-02-11 07:53:00
2:15 AM,73.4,71.6,94,29.86,9.0,ENE,4.6,-,N/A,,Overcast,60,2013-02-11 08:15:00
2:24 AM,73.4,69.8,88,29.86,9.0,ENE,4.6,-,N/A,,Overcast,70,2013-02-11 08:24:00
2:27 AM,73.4,69.8,88,29.86,9.0,East,4.6,-,N/A,,Overcast,80,2013-02-11 08:27:00
2:34 AM,73.4,69.8,88,29.86,9.0,East,4.6,-,N/A,,Overcast,80,2013-02-11 08:34:00
2:41 AM,73.4,69.8,88,29.86,9.0,East,4.6,-,N/A,,Overcast,80,2013-02-11 08:41:00
2:53 AM,73.0,70.0,90,29.86,9.0,East,5.8,-,N/A,,Overcast,100,2013-02-11 08:53:00
3:25 AM,71.6,69.8,94,29.85,8.0,East,3.5,-,N/A,,Overcast,80,2013-02-11 09:25:00
3:53 AM,72.0,70.0,93,29.85,8.0,Calm,Calm,-,N/A,,Overcast,0,2013-02-11 09:53:00
4:53 AM,72.0,70.0,93,29.85,8.0,Calm,Calm,-,N/A,,Overcast,0,2013-02-11 10:53:00
5:02 AM,71.6,69.8,94,29.85,8.0,ESE,4.6,-,N/A,,Overcast,110,2013-02-11 11:02:00
5:27 AM,71.6,71.6,100,29.85,8.0,Calm,Calm,-,N/A,,Overcast,0,2013-02-11 11:27:00
5:53 AM,73.0,70.0,90,29.86,7.0,Calm,Calm,-,N/A,,Overcast,0,2013-02-11 11:53:00
6:53 AM,71.1,70.0,96,29.88,4.0,North,4.6,-,0.01,,Overcast,350,2013-02-11 12:53:00
7:17 AM,69.8,69.8,100,29.89,2.5,NNW,10.4,-,0.00,,Overcast,330,2013-02-11 13:17:00
7:36 AM,68.0,66.2,94,29.89,3.0,NNW,9.2,-,0.00,,Overcast,340,2013-02-11 13:36:00
7:48 AM,66.2,66.2,100,29.90,2.0,NNW,6.9,-,0.00,,Overcast,340,2013-02-11 13:48:00
7:53 AM,66.9,66.9,100,29.90,2.0,NNW,8.1,-,0.00,Rain,Light Rain,330,2013-02-11 13:53:00
8:53 AM,66.9,66.0,97,29.92,2.0,NNW,6.9,-,0.00,,Overcast,340,2013-02-11 14:53:00
9:43 AM,66.2,66.2,100,29.94,1.8,NNW,6.9,-,N/A,,Overcast,330,2013-02-11 15:43:00
9:53 AM,66.0,66.0,100,29.94,2.0,NNW,8.1,-,N/A,,Overcast,330,2013-02-11 15:53:00
10:26 AM,68.0,66.2,94,29.94,3.0,NW,6.9,-,N/A,,Overcast,320,2013-02-11 16:26:00
10:53 AM,69.1,68.0,96,29.94,6.0,NW,5.8,-,N/A,,Overcast,320,2013-02-11 16:53:00
11:07 AM,71.6,66.2,83,29.94,7.0,NNW,8.1,-,N/A,,Overcast,340,2013-02-11 17:07:00
11:53 AM,75.0,68.0,79,29.92,8.0,NNE,6.9,-,N/A,,Overcast,20,2013-02-11 17:53:00
12:21 PM,75.2,68.0,78,29.92,9.0,North,4.6,-,N/A,,Overcast,10,2013-02-11 18:21:00
12:53 PM,78.1,69.1,74,29.89,10.0,Variable,4.6,-,N/A,,Overcast,0,2013-02-11 18:53:00
1:11 PM,80.6,69.8,70,29.89,10.0,Variable,3.5,-,N/A,,Scattered Clouds,0,2013-02-11 19:11:00
1:53 PM,82.9,69.1,63,29.86,10.0,North,4.6,-,N/A,,Mostly Cloudy,360,2013-02-11 19:53:00
2:08 PM,80.6,69.8,70,29.85,10.0,Calm,Calm,-,N/A,,Scattered Clouds,0,2013-02-11 20:08:00
2:53 PM,82.9,69.1,63,29.83,10.0,SE,4.6,-,N/A,,Clear,140,2013-02-11 20:53:00
3:53 PM,82.9,68.0,60,29.81,9.0,ENE,3.5,-,N/A,,Scattered Clouds,60,2013-02-11 21:53:00
4:53 PM,77.0,71.1,82,29.81,7.0,NNE,12.7,-,N/A,,Overcast,30,2013-02-11 22:53:00
5:11 PM,77.0,69.8,78,29.81,7.0,NNE,10.4,-,N/A,,Overcast,30,2013-02-11 23:11:00
5:53 PM,77.0,70.0,79,29.81,8.0,NE,8.1,-,N/A,,Scattered Clouds,50,2013-02-11 23:53:00
6:53 PM,73.0,68.0,84,29.83,8.0,ENE,5.8,-,N/A,,Clear,60,2013-02-12 00:53:00
7:53 PM,73.0,68.0,84,29.84,8.0,NNE,4.6,-,N/A,,Overcast,20,2013-02-12 01:53:00
8:23 PM,71.6,69.8,94,29.86,8.0,NNE,6.9,-,N/A,,Overcast,30,2013-02-12 02:23:00
8:53 PM,72.0,69.1,91,29.87,8.0,NNE,5.8,-,N/A,,Overcast,20,2013-02-12 02:53:00
9:08 PM,73.4,69.8,88,29.87,8.0,North,5.8,-,N/A,,Overcast,350,2013-02-12 03:08:00
9:24 PM,71.6,68.0,88,29.88,8.0,North,9.2,-,N/A,,Overcast,350,2013-02-12 03:24:00
9:45 PM,69.8,66.2,88,29.88,7.0,North,6.9,-,N/A,,Overcast,360,2013-02-12 03:45:00
9:53 PM,69.1,66.9,93,29.89,8.0,North,8.1,-,N/A,,Overcast,350,2013-02-12 03:53:00
10:53 PM,69.1,66.9,93,29.88,8.0,North,4.6,-,N/A,,Overcast,10,2013-02-12 04:53:00
11:09 PM,69.8,66.2,88,29.88,8.0,North,3.5,-,N/A,,Overcast,360,2013-02-12 05:09:00
11:20 PM,69.8,66.2,88,29.87,8.0,NNE,6.9,-,N/A,,Overcast,30,2013-02-12 05:20:00
11:53 PM,69.1,66.9,93,29.87,8.0,NNE,4.6,-,N/A,,Overcast,20,2013-02-12 05:53:00